Weather History for Grand Rapids, MI

Change the Weather History Date:

Tuesday, April 30, 2013

  Actual Average Record
Temperature  
Mean Temperature 68 °F 54 °F  
Max Temperature 78 °F 64 °F 87 °F (1942)
Min Temperature 57 °F 43 °F 26 °F (1971)
Degree Days  
Heating Degree Days 0 12  
Month to date heating degree days 609 518  
Since 1 July heating degree days 6122 6205  
Cooling Degree Days 3 0  
Month to date cooling degree days 3 7  
Year to date cooling degree days 3 8  
Growing Degree Days 18 (Base 50)    
Moisture  
Dew Point 55 °F    
Average Humidity 64    
Maximum Humidity 80    
Minimum Humidity 48    
Precipitation  
Precipitation 0.34 in 0.12 in 1.85 in (1963)
Month to date precipitation 11.10 3.35  
Year to date precipitation 19.10 9.60  
Snow  
Snow 0.00 in 0.00 in 3.60 in (1963)
Month to date snowfall 0.7 1.8  
Since 1 July snowfall 66.0 74.9  
Snow Depth 0.00 in    
Sea Level Pressure  
Sea Level Pressure 29.91 in    
Wind  
Wind Speed 14 mph (SSE)    
Max Wind Speed 26 mph    
Max Gust Speed 32 mph    
Visibility 10 miles    
Events Rain , Thunderstorm    
T = Trace of Precipitation, MM = Missing Value Source: NWS Daily Summary

Daily Weather History Graph

Daily Weather History Graph

Search for Another Location

Airport:

Trip Planner

Search our weather history database for the weather conditions in past years. The results will help you decide how hot, cold, wet, or windy it might be!

Date:

Astronomy

Apr. 30, 2013 Rise Set
Actual Time 6:37 AM EDT 8:42 PM EDT
Civil Twilight 6:06 AM EDT 9:13 PM EDT
Nautical Twilight 5:28 AM EDT 9:51 PM EDT
Astronomical Twilight 4:47 AM EDT 10:32 PM EDT
Moon 1:06 AM EDT (4/30) 11:03 AM EDT (4/30)
Length of Visible Light 15h 06m
Length of Day
14h 04m
Waning Gibbous, 70% of the Moon is Illuminated
Apr 30
Waning Gibbous
May 2
Last Quarter
May 9
New
May 18
First Quarter
May 25
Full

Hourly Weather History & Observations

Time (EDT) Temp. Dew Point Humidity Pressure Visibility Wind Dir Wind Speed Gust Speed Precip Events Conditions
12:53 AM 60.1 °F 50.0 °F 69% 29.90 in 10.0 mi South 6.9 mph - N/A   Clear
1:53 AM 57.0 °F 50.0 °F 77% 29.89 in 10.0 mi South 6.9 mph - N/A   Clear
2:53 AM 57.9 °F 50.0 °F 75% 29.88 in 10.0 mi SSE 9.2 mph - N/A   Clear
3:53 AM 59.0 °F 51.1 °F 75% 29.86 in 10.0 mi South 10.4 mph - N/A   Partly Cloudy
4:53 AM 60.1 °F 51.1 °F 72% 29.89 in 10.0 mi South 10.4 mph - N/A   Overcast
5:44 AM 60.8 °F 50.0 °F 68% 29.88 in 10.0 mi South 12.7 mph - N/A Thunderstorm Thunderstorm
5:53 AM 60.1 °F 50.0 °F 69% 29.88 in 10.0 mi South 12.7 mph - N/A Thunderstorm Thunderstorm
6:53 AM 57.9 °F 52.0 °F 81% 29.90 in 10.0 mi SSE 12.7 mph - 0.08 in Rain , Thunderstorm Thunderstorms and Rain
7:53 AM 57.9 °F 52.0 °F 81% 29.89 in 10.0 mi SE 20.7 mph 24.2 mph 0.14 in Rain , Thunderstorm Light Thunderstorms and Rain
8:53 AM 57.9 °F 53.1 °F 84% 29.92 in 10.0 mi SE 16.1 mph - 0.05 in Thunderstorm Thunderstorm
9:47 AM 59.0 °F 53.6 °F 82% 29.93 in 10.0 mi SE 12.7 mph - 0.00 in   Overcast
9:53 AM 59.0 °F 53.1 °F 81% 29.93 in 10.0 mi SE 10.4 mph - 0.00 in   Overcast
10:53 AM 62.1 °F 54.0 °F 75% 29.95 in 10.0 mi SE 13.8 mph - N/A   Overcast
11:53 AM 63.0 °F 53.1 °F 70% 29.94 in 10.0 mi SSE 17.3 mph 28.8 mph N/A   Overcast
12:53 PM 66.0 °F 54.0 °F 65% 29.92 in 10.0 mi SSE 23.0 mph 29.9 mph N/A   Mostly Cloudy
1:53 PM 70.0 °F 55.9 °F 61% 29.91 in 10.0 mi SSE 20.7 mph 25.3 mph N/A   Scattered Clouds
2:53 PM 73.0 °F 57.0 °F 57% 29.90 in 10.0 mi South 16.1 mph 24.2 mph N/A   Scattered Clouds
3:53 PM 75.9 °F 57.9 °F 54% 29.89 in 10.0 mi SSE 21.9 mph 28.8 mph N/A   Mostly Cloudy
4:53 PM 78.1 °F 57.9 °F 50% 29.88 in 10.0 mi South 18.4 mph 27.6 mph N/A   Mostly Cloudy
5:53 PM 78.1 °F 57.9 °F 50% 29.88 in 10.0 mi South 17.3 mph - N/A   Mostly Cloudy
6:53 PM 77.0 °F 59.0 °F 54% 29.90 in 10.0 mi South 18.4 mph - N/A   Mostly Cloudy
7:53 PM 75.0 °F 59.0 °F 57% 29.91 in 10.0 mi South 13.8 mph 23.0 mph N/A   Mostly Cloudy
8:53 PM 72.0 °F 59.0 °F 64% 29.94 in 10.0 mi South 11.5 mph - N/A   Mostly Cloudy
9:53 PM 71.1 °F 59.0 °F 66% 29.97 in 10.0 mi SSE 12.7 mph - N/A   Scattered Clouds
10:53 PM 70.0 °F 59.0 °F 68% 29.98 in 10.0 mi South 12.7 mph - N/A   Scattered Clouds
11:53 PM 69.1 °F 57.9 °F 68% 29.99 in 10.0 mi South 10.4 mph - N/A   Scattered Clouds